Regional Weather Roundup
Issued by NWS State College, PA

Home | Current Version | Previous Version | Graphics & Text | Print | Product List | Glossary On
Versions: 1 2 3 4 5 6 7 8 9 10 11 12 13 14 15 16 17 18 19 20 21 22 23 24 25 26 27 28 29 30 31 32 33 34 35 36 37 38 39 40 41 42 43 44 45 46 47 48 49 50
000
ASUS41 KCTP 260703
RWRCTP

REGIONAL WEATHER ROUNDUP
NATIONAL WEATHER SERVICE STATE COLLEGE PA
300 AM EDT TUE JUL 26 2016

Note: "fair" indicates few or no clouds below 12,000 feet with no
significant weather and/or obstructions to visibility.

* = STATION THAT DOES NOT REPORT PRECIPITATION /E.G. RAIN...SNOW...ETC/
    THUNDER OR FOG.

PAZ002>004-007>009-013>016-020>023-029>032-260800-
WESTERN PENNSYLVANIA

CITY           SKY/WX    TMP DP  RH WIND       PRES   REMARKS
ERIE           MOCLDY    73  69  87 CALM      29.97R
MEADVILLE      CLOUDY    68  65  90 CALM      29.99S
FRANKLIN*      CLOUDY    70  64  83 W6        30.02R
NEW CASTLE     FOG       68  67  96 CALM      29.99S VSB 1/2
BEAVER COUNTY  NOT AVBL
BUTLER*        CLOUDY    70  66  88 CALM      30.01S
PITTSBURGH INT CLOUDY    73  69  87 CALM      29.98S
PITTSBURGH     CLOUDY    72  68  87 S3        29.98S FOG
INDIANA*       MOCLDY    70  70 100 CALM      30.03S
LATROBE        CLOUDY    70  70 100 CALM      30.00S
WASHINGTON CO*   N/A     68  66  94 CALM      30.00S VSB 3/4
$$

PAZ004>006-010>012-017>019-024>028-033>037-041-042-045-046-049>053-260800-
CENTRAL PENNSYLVANIA

CITY           SKY/WX    TMP DP  RH WIND       PRES   REMARKS
BRADFORD       CLEAR     62  60  93 CALM      30.01F FOG
DUBOIS         CLOUDY    67  64  90 SW3       30.00S
CLEARFIELD     FOG       70  68  93 SW6       29.99S VSB 1/4
JOHNSTOWN      CLOUDY    70  65  84 SW3       30.04S
ALTOONA        PTCLDY    71  66  84 SW3       30.00S
STATE COLLEGE  CLOUDY    73  69  89 W3        29.97S
WILLIAMSPORT   CLOUDY    70  68  93 CALM      29.92S FOG
SELINSGROVE    FOG       69  69 100 CALM      29.94S VSB 1/4
FT INDIANTOWN  FOG       66  66 100 CALM      29.93S VSB 1
CAPITAL CITY   PTCLDY    73  70  90 CALM      29.93R
HARRISBURG     PTCLDY    73  72  96 CALM      29.92S
YORK           MOCLDY    70  70 100 CALM      29.94S
$$

PAZ038>040-043-044-047-048-054-055-060>062-067>071-260800-
EASTERN PENNSYLVANIA

CITY           SKY/WX    TMP DP  RH WIND       PRES   REMARKS
SCRANTON       PTCLDY    68  67  96 SW7       29.92F
MOUNT POCONO   CLOUDY    65  64  97 NW13      29.95S FOG
ALLENTOWN      CLEAR     68  65  90 W3        29.91S FOG
QUAKERTOWN*    SUNNY     68  68 100 CALM      29.93S
READING        CLEAR     70  68  93 CALM      29.91S
LANCASTER      PTCLDY    70  70 100 CALM      29.93S
COATESVILLE    SUNNY     72  70  94 W5        29.95S
POTTSTOWN      CLEAR     69  69 100 CALM      29.93S
BLUE BELL      CLEAR     70  70 100 CALM      29.91R
DOYLESTOWN     CLEAR     69  68  96 CALM      29.91R
WILLOW GROVE   NOT AVBL
NORTH PHILA    CLEAR     74  72  93 W5        29.92R
PHILADELPHIA   PTCLDY    75  73  93 SW8       29.91S
$$




USA.gov is the U.S. government's official web portal to all federal, state and local government web resources and services.